• En España
  • Lista de países
  • Para 7 días
  • Temperatura del agua
  • Mapa Satelital
  • El tiempo en el mapa
  • Informadores
  • user-avatar
    Iniciar sesión

    Tiempo cada hora Drzonkow

    Hoy, 23 Enero, Martes

    Tiempo Temperatura Precipitaciones Viento Presión Humedad
    00:00 -2°C° 0,1 mm 3 mps 751 mmHg 83%
    01:00 -3°C° 0,1 mm 2 mps 751 mmHg 85%
    02:00 -3°C° 0 mm 2 mps 752 mmHg 86%
    03:00 -3°C° 0 mm 2 mps 752 mmHg 88%
    04:00 -3°C° 0 mm 2 mps 753 mmHg 89%
    05:00 -1°C° 0 mm 1 mps 754 mmHg 89%
    06:00 -2°C° 0 mm 1 mps 754 mmHg 90%
    07:00 -2°C° 0 mm 1 mps 755 mmHg 90%
    08:00 -1°C° 0 mm 1 mps 756 mmHg 88%
    09:00 -1°C° 0 mm 1 mps 756 mmHg 86%
    10:00 0°C° 0 mm 1 mps 757 mmHg 84%
    11:00 0°C° 0 mm 1 mps 757 mmHg 82%
    12:00 +1°C° 0 mm 1 mps 758 mmHg 79%
    13:00 +2°C° 0 mm 1 mps 758 mmHg 77%
    14:00 +2°C° 0 mm 1 mps 758 mmHg 81%
    15:00 +1°C° 0 mm 1 mps 758 mmHg 84%
    16:00 +1°C° 0 mm 1 mps 759 mmHg 88%
    17:00 +1°C° 0 mm 1 mps 759 mmHg 90%
    18:00 -1°C° 0 mm 2 mps 759 mmHg 91%
    19:00 -1°C° 0 mm 2 mps 759 mmHg 93%
    20:00 +1°C° 0 mm 2 mps 759 mmHg 93%
    21:00 +1°C° 0 mm 2 mps 759 mmHg 93%
    22:00 +1°C° 0 mm 3 mps 758 mmHg 93%
    23:00 0°C° 0 mm 3 mps 758 mmHg 92%

    Mañana, 24 Enero, Miércoles

    Tiempo Temperatura Precipitaciones Viento Presión Humedad
    00:00 0°C° 0 mm 3 mps 758 mmHg 91%
    01:00 0°C° 0 mm 3 mps 758 mmHg 90%
    02:00 0°C° 0,1 mm 4 mps 757 mmHg 90%
    03:00 0°C° 0,1 mm 4 mps 757 mmHg 89%
    04:00 +1°C° 0,1 mm 4 mps 756 mmHg 88%
    05:00 +1°C° 0,1 mm 4 mps 756 mmHg 89%
    06:00 +1°C° 0,1 mm 4 mps 756 mmHg 90%
    07:00 +3°C° 0,1 mm 4 mps 756 mmHg 92%
    08:00 +3°C° 0 mm 4 mps 756 mmHg 91%
    09:00 +4°C° 0 mm 4 mps 757 mmHg 91%
    10:00 +4°C° 0 mm 4 mps 757 mmHg 90%
    11:00 +5°C° 0 mm 4 mps 757 mmHg 89%
    12:00 +6°C° 0 mm 4 mps 756 mmHg 87%
    13:00 +6°C° 0 mm 4 mps 756 mmHg 85%
    14:00 +6°C° 0 mm 4 mps 756 mmHg 86%
    15:00 +6°C° 0 mm 4 mps 756 mmHg 86%
    16:00 +6°C° 0 mm 4 mps 756 mmHg 87%
    17:00 +5°C° 0 mm 4 mps 755 mmHg 88%
    18:00 +5°C° 0 mm 5 mps 755 mmHg 88%
    19:00 +5°C° 0 mm 5 mps 755 mmHg 88%
    20:00 +5°C° 0 mm 5 mps 755 mmHg 87%
    21:00 +5°C° 0 mm 5 mps 755 mmHg 86%
    22:00 +5°C° 0 mm 5 mps 754 mmHg 85%
    23:00 +5°C° 0 mm 5 mps 754 mmHg 83%

    Pasado mañana, 25 Enero, Jueves

    Tiempo Temperatura Precipitaciones Viento Presión Humedad
    00:00 +5°C° 0 mm 5 mps 754 mmHg 80%
    01:00 +5°C° 0 mm 6 mps 753 mmHg 78%
    02:00 +4°C° 0 mm 6 mps 753 mmHg 77%
    03:00 +4°C° 0 mm 6 mps 753 mmHg 76%
    04:00 +4°C° 0 mm 6 mps 752 mmHg 74%
    05:00 +5°C° 0 mm 5 mps 752 mmHg 75%
    06:00 +5°C° 0 mm 5 mps 752 mmHg 76%
    07:00 +5°C° 0 mm 5 mps 752 mmHg 77%
    08:00 +5°C° 0 mm 5 mps 752 mmHg 76%
    09:00 +6°C° 0 mm 5 mps 752 mmHg 75%
    10:00 +6°C° 0 mm 5 mps 752 mmHg 74%
    11:00 +7°C° 0 mm 5 mps 752 mmHg 72%
    12:00 +8°C° 0 mm 5 mps 752 mmHg 70%
    13:00 +8°C° 0 mm 4 mps 752 mmHg 68%
    14:00 +8°C° 0 mm 4 mps 751 mmHg 70%
    15:00 +7°C° 0 mm 4 mps 751 mmHg 72%
    16:00 +7°C° 0 mm 4 mps 751 mmHg 74%
    17:00 +6°C° 0 mm 4 mps 751 mmHg 74%
    18:00 +6°C° 0 mm 4 mps 751 mmHg 74%
    19:00 +5°C° 0 mm 4 mps 751 mmHg 75%
    20:00 +5°C° 0 mm 4 mps 751 mmHg 75%
    21:00 +5°C° 0 mm 4 mps 751 mmHg 75%
    22:00 +5°C° 0 mm 4 mps 752 mmHg 76%
    23:00 +4°C° 0 mm 4 mps 752 mmHg 77%

    26 Enero, Viernes

    Tiempo Temperatura Precipitaciones Viento Presión Humedad
    00:00 +4°C° 0 mm 3 mps 751 mmHg 78%
    01:00 +4°C° 0 mm 3 mps 751 mmHg 80%
    02:00 +4°C° 0 mm 3 mps 751 mmHg 80%
    03:00 +3°C° 0 mm 3 mps 751 mmHg 80%
    04:00 +3°C° 0 mm 3 mps 751 mmHg 81%
    05:00 +3°C° 0,1 mm 3 mps 751 mmHg 82%
    06:00 +4°C° 0,1 mm 2 mps 752 mmHg 84%
    07:00 +4°C° 0,1 mm 2 mps 752 mmHg 85%
    08:00 +4°C° 0 mm 2 mps 752 mmHg 85%
    09:00 +4°C° 0 mm 2 mps 752 mmHg 85%
    10:00 +5°C° 0 mm 2 mps 753 mmHg 85%
    11:00 +5°C° 0 mm 2 mps 753 mmHg 84%
    12:00 +7°C° 0 mm 1 mps 753 mmHg 83%
    13:00 +7°C° 0 mm 1 mps 753 mmHg 82%
    14:00 +7°C° 0,2 mm 1 mps 753 mmHg 85%
    15:00 +6°C° 0,2 mm 0 mps 753 mmHg 88%
    16:00 +5°C° 0,2 mm 0 mps 753 mmHg 91%
    17:00 +5°C° 0,6 mm 0 mps 753 mmHg 93%
    18:00 +5°C° 0,6 mm 0 mps 754 mmHg 94%
    19:00 +4°C° 0,6 mm 0 mps 754 mmHg 96%
    20:00 +4°C° 0,6 mm 0 mps 754 mmHg 96%
    21:00 +4°C° 0,6 mm 0 mps 754 mmHg 96%
    22:00 +5°C° 0,6 mm 1 mps 755 mmHg 97%
    23:00 +5°C° 0,6 mm 1 mps 755 mmHg 97%

    27 Enero, Sábado

    Tiempo Temperatura Precipitaciones Viento Presión Humedad
    00:00 +5°C° 0,6 mm 1 mps 755 mmHg 97%
    01:00 +5°C° 0,6 mm 1 mps 755 mmHg 97%
    02:00 +5°C° 0,5 mm 1 mps 756 mmHg 96%
    03:00 +5°C° 0,5 mm 1 mps 756 mmHg 96%
    04:00 +5°C° 0,5 mm 1 mps 756 mmHg 96%
    05:00 +4°C° 0,1 mm 2 mps 756 mmHg 95%
    06:00 +3°C° 0,1 mm 2 mps 757 mmHg 95%
    07:00 +3°C° 0,1 mm 2 mps 757 mmHg 94%
    08:00 +3°C° 0 mm 2 mps 758 mmHg 92%
    09:00 +3°C° 0 mm 3 mps 758 mmHg 89%
    10:00 +3°C° 0 mm 3 mps 759 mmHg 87%
    11:00 +4°C° 0 mm 4 mps 759 mmHg 83%
    12:00 +4°C° 0 mm 4 mps 759 mmHg 80%
    13:00 +5°C° 0 mm 4 mps 760 mmHg 77%
    14:00 +5°C° 0,1 mm 4 mps 760 mmHg 78%
    15:00 +4°C° 0,1 mm 4 mps 760 mmHg 79%
    16:00 +4°C° 0,1 mm 4 mps 761 mmHg 81%
    17:00 +3°C° 0,1 mm 4 mps 761 mmHg 82%
    18:00 +3°C° 0,1 mm 4 mps 762 mmHg 83%
    19:00 +1°C° 0,1 mm 4 mps 762 mmHg 83%
    20:00 +1°C° 0 mm 4 mps 763 mmHg 84%
    21:00 0°C° 0 mm 4 mps 763 mmHg 85%
    22:00 0°C° 0 mm 4 mps 764 mmHg 85%
    23:00 -1°C° 0 mm 4 mps 764 mmHg 86%

    28 Enero, Domingo

    Tiempo Temperatura Precipitaciones Viento Presión Humedad
    00:00 -1°C° 0 mm 4 mps 764 mmHg 87%
    01:00 -1°C° 0 mm 4 mps 765 mmHg 88%
    02:00 -1°C° 0 mm 3 mps 764 mmHg 89%
    03:00 -1°C° 0 mm 3 mps 764 mmHg 90%
    04:00 -1°C° 0 mm 3 mps 764 mmHg 91%
    05:00 -1°C° 0 mm 3 mps 764 mmHg 88%
    06:00 -1°C° 0 mm 3 mps 764 mmHg 86%
    07:00 -1°C° 0 mm 4 mps 764 mmHg 84%
    08:00 -1°C° 0 mm 4 mps 764 mmHg 79%
    09:00 0°C° 0 mm 4 mps 764 mmHg 75%
    10:00 +1°C° 0 mm 5 mps 764 mmHg 71%
    11:00 +1°C° 0 mm 5 mps 763 mmHg 71%
    12:00 +1°C° 0 mm 5 mps 763 mmHg 72%
    13:00 +2°C° 0 mm 5 mps 762 mmHg 73%
    14:00 +2°C° 0 mm 5 mps 762 mmHg 76%
    15:00 +2°C° 0 mm 5 mps 762 mmHg 79%
    16:00 +2°C° 0 mm 5 mps 761 mmHg 83%
    17:00 +2°C° 0,4 mm 5 mps 761 mmHg 85%
    18:00 +2°C° 0,4 mm 5 mps 761 mmHg 88%
    19:00 +2°C° 0,4 mm 5 mps 761 mmHg 90%
    20:00 +3°C° 0,2 mm 5 mps 761 mmHg 90%
    21:00 +3°C° 0,2 mm 5 mps 761 mmHg 91%
    22:00 +4°C° 0,2 mm 6 mps 761 mmHg 91%
    23:00 +4°C° 0,2 mm 6 mps 761 mmHg 91%
    Mostrar más